{"data":{"norad_id":67112,"epoch":"2026-05-25T04:40:12.021312Z","epoch_age_seconds":57919,"freshness":"FRESH","line1":"1 67112U 25299L   26145.19458358  .00011599  00000+0  43025-3 0  9996","line2":"2 67112  43.0021  97.1913 0001278 264.9043  95.1662 15.27587522 24813","mean_motion":15.27587522,"eccentricity":0.0001278,"inclination_deg":43.0021,"raan_deg":97.1913,"arg_perigee_deg":264.9043,"mean_anomaly_deg":95.1662,"bstar":0.00043025,"rev_number":2481,"period_min":94.266284534367,"perigee_km":482.14971585348,"apogee_km":483.90342926262,"semimajor_km":6861.1635725581,"source":"CELESTRAK","updated_at":"2026-05-25T13:38:21.474845Z"}}